Location: Godiavel Galaoual
(15.2485°N, 12.6604°W)
Time: 01:52:04
(UTC+00:00)

Transit 4A - Pass Details

Date: 18 June 2021
Orbit: 872 x 972 km, 66.8° (Epoch: 29 July)

Event Time Altitude Azimuth Distance (km) Brightness Sun altitude
Rises 20:15:28 0° 346° (NNW) 3,459 11.6 -12.2°
Reaches altitude 10° 20:17:59 10° 350° (N) 2,527 10.7 -12.7°
Maximum altitude 20:23:42 56° 68° (ENE) 1,045 8.0 -13.9°
Enters shadow 20:27:55 19° 141° (SE) 2,005 9.1 -14.8°
Drops below altitude 10° 20:29:32 10° 146° (SE) 2,576 - -15.1°
Sets 20:32:06 0° 150° (SSE) 3,532 - -15.7°
